Other Public Products
Issued by NWS Charleston, SC

Current Version | Previous Version | Graphics & Text | Print | Product List | Glossary On
Versions: 1 2 3 4 5 6 7 8 9 10 11 12 13 14 15 16 17 18 19 20 21 22 23 24 25 26 27 28 29 30 31 32 33 34 35 36 37 38 39 40 41 42 43 44 45 46 47 48 49 50
101
FPUS82 KCHS 190627
OPUCHS

TEST...KCHS/KSAV Gateway Observations...TEST
National Weather Service Charleston SC
100 AM EST SUN NOV 19 2017

NOTE: "fair" indicates few or no clouds below 12,000 feet with no
significant weather and/or obstructions to visibility.

SCZ050-WAZ558-NCZ071-TXZ119-213-PAZ071-DCZ001-FLZ074-172-MI076-
NYZ176-178-MAZ016-IL014-TNZ027-NJZ106-GAZ044-MD014-190700-

...Gateway Observations for Charleston International...

CITY           SKY/WX    TMP DP  RH WIND       PRES   REMARKS
Chas Airport   CLEAR     65  57  75 SW15      29.77F
6HR MIN TEMP:  62; 6HR MAX TEMP:  65;

Seattle        CLOUDY    44  37  76 SE8       30.12F
6HR MIN TEMP:  44; 6HR MAX TEMP:  49;

Charlotte      CLOUDY    66  54  65 SW20G28   29.57F
6HR MIN TEMP:  63; 6HR MAX TEMP:  66;

Dallas DFW     CLEAR     49  35  58 NW8       30.28S
6HR MIN TEMP:  48; 6HR MAX TEMP:  58;

Dallas Love    PTCLDY    48  36  63 NW6       30.30S
6HR MIN TEMP:  48; 6HR MAX TEMP:  58;

Philladelphia  LGT RAIN  61  51  70 SW20G31   29.37F
6HR MIN TEMP:  51; 6HR MAX TEMP:  62; 6HR PCP: TRACE;

Wash National  LGT RAIN  64  51  62 S23       29.39F
6HR MIN TEMP:  56; 6HR MAX TEMP:  64; 6HR PCP: TRACE;

Baltimore      LGT RAIN  61  53  75 SW9G25    29.37F
6HR MIN TEMP:  56; 6HR MAX TEMP:  63; 6HR PCP: TRACE;

Miami          PTCLDY    70  66  87 CALM      29.95F
6HR MIN TEMP:  69; 6HR MAX TEMP:  77;

Detroit        CLOUDY    39  32  76 NW22G29   29.56R WCI  29
6HR MIN TEMP:  35; 6HR MAX TEMP:  40; 6HR PCP:  0.13;

Newark         MOCLDY    56  50  80 S8        29.36F
6HR MIN TEMP:  48; 6HR MAX TEMP:  56; 6HR PCP: TRACE;

Laguardia      MOCLDY    57  50  77 S9        29.36F
6HR MIN TEMP:  50; 6HR MAX TEMP:  57; 6HR PCP:  0.03;

J F K          CLOUDY    55  53  93 S21       29.39F
6HR MIN TEMP:  50; 6HR MAX TEMP:  57; 6HR PCP:  0.15;

Boston Logan   LGT RAIN  50  50 100 S6        29.43F
6HR MIN TEMP:  46; 6HR MAX TEMP:  52; 6HR PCP:  0.10;

Ft. Lauderdale PTCLDY    69  66  90 CALM      29.94F
6HR MIN TEMP:  69; 6HR MAX TEMP:  74;

Chicago O`Hare CLOUDY    38  26  62 NW20G29   29.84R WCI  28
6HR MIN TEMP:  38; 6HR MAX TEMP:  40;

Chicago Midway CLOUDY    38  30  73 NW14G20   29.85R WCI  30
6HR MIN TEMP:  38; 6HR MAX TEMP:  40;

Houston Bush   PTCLDY    57  41  55 N21G30    30.21R
6HR MIN TEMP:  57; 6HR MAX TEMP:  72;

Houston Hobby  CLEAR     58  42  55 N20G31    30.18R
6HR MIN TEMP:  58; 6HR MAX TEMP:  74; 6HR PCP: TRACE;

Nashville      CLOUDY    45  36  70 NW12      29.99R
6HR MIN TEMP:  44; 6HR MAX TEMP:  55; 6HR PCP: TRACE;

Atlanta        LGT RAIN  53  50  89 NW20G36   29.80R
6HR MIN TEMP:  53; 6HR MAX TEMP:  69; 6HR PCP:  0.30;


$$

GAZ044-118-TXZ119-213-NCZ071-DCZ001-MDZ014-506-PAZ021-071-NJZ106-
NYZ176-178-MAZ106-OHZ011-021-055-MIZ076-KYZ091-ILZ014-INZ047-
MNZ060-ONZ431-190700-

...Gateway Observations for Savannah International...

CITY           SKY/WX    TMP DP  RH WIND       PRES   REMARKS
Savannah Arpt  CLEAR     64  57  78 S13       29.80F
6HR MIN TEMP:  60; 6HR MAX TEMP:  66;

Atlanta        LGT RAIN  53  50  89 NW20G36   29.80R
6HR MIN TEMP:  53; 6HR MAX TEMP:  69; 6HR PCP:  0.30;

Charlotte      CLOUDY    66  54  65 SW20G28   29.57F
6HR MIN TEMP:  63; 6HR MAX TEMP:  66;

Dallas DFW     CLEAR     49  35  58 NW8       30.28S
6HR MIN TEMP:  48; 6HR MAX TEMP:  58;

Houston Bush   PTCLDY    57  41  55 N21G30    30.21R
6HR MIN TEMP:  57; 6HR MAX TEMP:  72;

Wash National  LGT RAIN  64  51  62 S23       29.39F
6HR MIN TEMP:  56; 6HR MAX TEMP:  64; 6HR PCP: TRACE;

Wash Dulles    LGT RAIN  58  53  84 S16G28    29.37F
6HR MIN TEMP:  58; 6HR MAX TEMP:  62; 6HR PCP:  0.04;

Baltimore      LGT RAIN  61  53  75 SW9G25    29.37F
6HR MIN TEMP:  56; 6HR MAX TEMP:  63; 6HR PCP: TRACE;

Philadelphia   LGT RAIN  61  51  70 SW20G31   29.37F
6HR MIN TEMP:  51; 6HR MAX TEMP:  62; 6HR PCP: TRACE;

Newark         MOCLDY    56  50  80 S8        29.36F
6HR MIN TEMP:  48; 6HR MAX TEMP:  56; 6HR PCP: TRACE;

Laguardia      MOCLDY    57  50  77 S9        29.36F
6HR MIN TEMP:  50; 6HR MAX TEMP:  57; 6HR PCP:  0.03;

J F K          CLOUDY    55  53  93 S21       29.39F
6HR MIN TEMP:  50; 6HR MAX TEMP:  57; 6HR PCP:  0.15;

Boston         LGT RAIN  50  50 100 S6        29.43F
6HR MIN TEMP:  46; 6HR MAX TEMP:  52; 6HR PCP:  0.10;

Pittsburg      LGT RAIN  41  39  93 W30G43    29.35R
6HR MIN TEMP:  42; 6HR MAX TEMP:  61; 6HR PCP:  0.59;

Akron          LGT RAIN  37  33  85 NW21      29.43R WCI  26
6HR MIN TEMP:  37; 6HR MAX TEMP:  57; 6HR PCP:  0.39;

Cleveland      LGT RAIN  39  36  89 NW17G33   29.48R WCI  30
6HR MIN TEMP:  37; 6HR MAX TEMP:  57; 6HR PCP:  0.37;

Cincinnati     CLOUDY    41  39  93 W22G29    29.79R
6HR MIN TEMP:  41; 6HR MAX TEMP:  51; 6HR PCP:  0.02;

Columbus       CLOUDY    39  37  91 NW16      29.66R WCI  30
Detroit        CLOUDY    39  32  76 NW22G29   29.56R WCI  29
6HR MIN TEMP:  35; 6HR MAX TEMP:  40; 6HR PCP:  0.13;

Chicago O`Hare CLOUDY    38  26  62 NW20G29   29.84R WCI  28
6HR MIN TEMP:  38; 6HR MAX TEMP:  40;

Minneapolis    MOCLDY    21  11  65 NW12      30.04F WCI   9
6HR MIN TEMP:  21; 6HR MAX TEMP:  28;

Indianapolis   CLOUDY    38  30  73 W17       29.86R WCI  28
6HR MIN TEMP:  39; 6HR MAX TEMP:  40; 6HR PCP:  0.03;

Toronto Canada LGT RAIN  36  34  93 N29G36    29.19S WCI  23

$$




USA.gov is the U.S. government's official web portal to all federal, state and local government web resources and services.